Regional Weather Roundup
Issued by NWS

Home | Current Version | Previous Version | Text Only | Print | Product List | Glossary On
Versions: 1 2 3 4 5 6 7 8 9 10 11 12 13 14 15 16 17 18 19 20 21 22 23 24 25 26 27 28 29 30 31 32 33 34 35 36 37 38 39 40 41 42 43 44 45 46 47 48 49 50
000
ASUS44 KLIX 301211
RWRLA
LOUISIANA WEATHER ROUNDUP
NATIONAL WEATHER SERVICE NEW ORLEANS LA
700 AM CDT SAT JUL 30 2016

NOTE: "FAIR" INDICATES FEW OR NO CLOUDS BELOW 12,000 FEET WITH NO
      SIGNIFICANT WEATHER AND/OR OBSTRUCTIONS TO VISIBILITY.
      SKY/WX - SKY CONDITION AND SIGNIFICANT WEATHER.
      TMP - AIR TEMPERATURE.    DP   - DEWPOINT TEMPERATURE.
      RH  - RELATIVE HUMIDITY.  PRES - PRESSURE.
      HX  - HEAT INDEX.         WCI  - WIND CHILL INDEX.

*  THESE STATIONS ARE NOT NWS OR FAA STATIONS AND ARE NOT UNDER
   NWS QUALITY CONTROL.

LAZ040-048-061>063-065-066-069-301300-
SOUTHEAST LOUISIANA

CITY           SKY/WX    TMP DP  RH WIND       PRES   REMARKS
N.O. AUDUBON     N/A     79  78  99 MISG        N/A
6HR MIN TEMP:  78; 6HR MAX TEMP:  79;

N.O. INTL ARPT PTCLDY    81  76  84 NW3       30.03R
6HR MIN TEMP:  79; 6HR MAX TEMP:  81;

N.O. LAKEFRONT CLEAR     82  76  81 W5        30.03R
6HR MIN TEMP:  81; 6HR MAX TEMP:  84;

N.O. DOWNTOWN* FAIR      81  77  88 CALM      30.04R
6HR MIN TEMP:  80; 6HR MAX TEMP:  83;

RESERVE*       FAIR      76  74  93 CALM      30.03R
6HR MIN TEMP:  75; 6HR MAX TEMP:  77;

SLIDELL        CLEAR     74  72  93 CALM      30.03R
6HR MIN TEMP:  73; 6HR MAX TEMP:  77;

BATON ROUGE    CLEAR     76  73  91 CALM      30.02S
6HR MIN TEMP:  75; 6HR MAX TEMP:  79;

BOOTHVILLE     MOCLDY    82  75  79 W9        30.04R
6HR MIN TEMP:  82; 6HR MAX TEMP:  84;

BELLE CHASSE   CLEAR     76  76 100 CALM      30.03R
6HR MIN TEMP:  75; 6HR MAX TEMP:  77;

BOGALUSA*      FAIR      75  72  88 CALM      30.04R
6HR MIN TEMP:  74; 6HR MAX TEMP:  78;

GALLIANO*      SUNNY     69  69 100 CALM      30.03R
6HR MIN TEMP:  68; 6HR MAX TEMP:  70; 6HR PCP:  0.04;

NEW ROADS*     FAIR      74  73  98 CALM      30.03R
6HR MIN TEMP:  73; 6HR MAX TEMP:  76;

GONZALES*      FAIR      75  75 100 CALM      30.02S
6HR MIN TEMP:  74; 6HR MAX TEMP:  78; 6HR PCP:  0.01;

HAMMOND*       CLEAR     73  72  94 CALM      30.03R
HOUMA*         NOT AVBL
PORT FOURCHON* NOT AVBL

$$

LAZ041-044-053-054-301300-
SOUTHWEST LOUISIANA

CITY           SKY/WX    TMP DP  RH WIND       PRES   REMARKS
LAKE CHARLES   CLEAR     76  75  97 CALM      30.01S
6HR MIN TEMP:  76; 6HR MAX TEMP:  79;

LAFAYETTE      CLEAR     78  77  96 S3        30.02S
6HR MIN TEMP:  77; 6HR MAX TEMP:  79;

PATTERSON      CLEAR     77  76  96 CALM      30.03R
6HR MIN TEMP:  76; 6HR MAX TEMP:  79; 6HR PCP:  0.03;

SALT POINT       N/A     85  75  72 VRB5      30.01R
6HR MIN TEMP:  83; 6HR MAX TEMP:  85;

NEW IBERIA     CLEAR     76  75  97 CALM      30.03R
6HR MIN TEMP:  76; 6HR MAX TEMP:  78;

CHENAULT AIRPK CLEAR     77  75  94 CALM      30.02S

$$

LAZ027-028-301300-
CENTRAL LOUISIANA

CITY           SKY/WX    TMP DP  RH WIND       PRES   REMARKS
FORT POLK      CLOUDY    77  75  93 SW7       30.02R
6HR MIN TEMP:  76; 6HR MAX TEMP:  78;

ALEXANDRIA INT CLOUDY    76  75  97 CALM      30.01R
6HR MIN TEMP:  74; 6HR MAX TEMP:  76;

ALEXANDRIA     CLOUDY    75  75 100 CALM      30.02R
6HR MIN TEMP:  73; 6HR MAX TEMP:  75;


$$

LAZ001-002-301300-
NORTHWEST LOUISIANA

CITY           SKY/WX    TMP DP  RH WIND       PRES   REMARKS
SHREVEPORT     PTCLDY    76  74  93 S3        30.01R
6HR MIN TEMP:  76; 6HR MAX TEMP:  81;

BARKSDALE AFB  CLEAR     76  74  94 S3        30.01R
6HR MIN TEMP:  74; 6HR MAX TEMP:  79;

DTN SHREVEPORT CLEAR     77  74  90 SW3       30.01R
6HR MIN TEMP:  76; 6HR MAX TEMP:  82;


$$

LAZ014-016-301300-
NORTHEAST LOUISIANA

CITY           SKY/WX    TMP DP  RH WIND       PRES   REMARKS
MONROE         CLEAR     76  74  93 S3        30.03R
6HR MIN TEMP:  75; 6HR MAX TEMP:  78;

TALLULAH       PTCLDY    75  73  93 CALM      30.03R FOG
6HR MIN TEMP:  75; 6HR MAX TEMP:  79;


$$




USA.gov is the U.S. government's official web portal to all federal, state and local government web resources and services.